Regional Weather Roundup
Issued by NWS

Home | Current Version | Previous Version | Graphics & Text | Print | Product List | Glossary On
Versions: 1 2 3 4 5 6 7 8 9 10 11 12 13 14 15 16 17 18 19 20 21 22 23 24 25 26 27 28 29 30 31 32 33 34 35 36 37 38 39 40 41 42 43 44 45 46 47 48 49 50
393
ASUS45 KTFX 251110
RWRMT
MONTANA REGIONAL WEATHER ROUNDUP
NATIONAL WEATHER SERVICE GREAT FALLS MT
400 AM MST SUN FEB 25 2018

NOTE: "FAIR" INDICATES FEW OR NO CLOUDS BELOW 12000 FEET WITH NO
SIGNIFICANT WEATHER AND/OR OBSTRUCTIONS TO VISIBILITY.

MTZ001>007-043-251200-
WEST OF THE DIVIDE

CITY           SKY/WX    TMP DP  RH WIND       PRES   REMARKS
KALISPELL      CLOUDY    26  21  81 S13       29.79F WCI  15
MISSOULA       CLOUDY    22  18  85 S7        29.87S WCI  13
BUTTE          FAIR      12   3  67 CALM      29.75F
MULLAN PASS    SNOW      18  13  80 SW12G24   29.70F VSB 1/2 WCI   5
ANACONDA         N/A     21   5  49 SW12      29.77F WCI   9
DEER LODGE       N/A     19   9  63 NW5       29.78F
HAMILTON         N/A     28  12  50 MISG      29.86F
PLAINS           N/A     32  15  49 SW6       29.87F WCI  26
RONAN            N/A     27  18  69 S10       29.87R WCI  17
$$

MTZ008-052>055-251200-
SOUTHWEST MONTANA

CITY           SKY/WX    TMP DP  RH WIND       PRES   REMARKS
BOZEMAN        FAIR      10   3  73 NE5       29.79F
DILLON         MOCLDY    12   6  77 S13       29.82F WCI  -3
ENNIS          MOCLDY    19   5  53 SW14      29.84S WCI   6
W YELLOWSTONE  CLOUDY    12   7  79 SW13G24   29.77S WCI  -3
THREE FORKS      N/A     26   5  40 SW12      29.79F WCI  16
TWIN BRIDGES     N/A     19   6  57 S5        29.83F
$$

MTZ009-010-012-014-046-048-049-054-251200-
EAST SLOPES AND CENTRAL MONTANA

CITY           SKY/WX    TMP DP  RH WIND       PRES   REMARKS
CUT BANK       FAIR      21  11  65 W26       29.51F WCI   4
GREAT FALLS    FAIR      23  10  57 SW24G31   29.61F WCI   7
MALMSTROM AFB  FAIR      22  12  67 SW22G32   29.63F WCI   6
HELENA         FAIR      27  12  53 SW16G28   29.74F WCI  15
AUGUSTA        SNOWSHWR  22  14  73 W39G45    29.58F WCI   1
BOWMANS CRNR   MOCLDY    21   8  57 W22       29.62F WCI   5
CHOTEAU          N/A     23  10  58 SW17G26   29.57F WCI   9
CONRAD           N/A     18   9  68 SW3       29.61
FAIRFIELD      MOCLDY    22  12  64 SW29      29.58F WCI   5
POWER          MOCLDY    20  10  65 SW24      29.58F WCI   3
RAYNESFORD     FAIR      25  10  52 SW32G41   29.61F WCI   7
ULM            MOCLDY    24  13  64 W26       29.64F WCI   7
WHITE SULPHUR    N/A     19  10  68 W31G44    29.63F HAZE    WCI   0
$$

MTZ011-013-016-021-045-047-050-051-251200-
NORTH CENTRAL MONTANA

CITY           SKY/WX    TMP DP  RH WIND       PRES   REMARKS
HAVRE          FAIR      10   4  76 SW15      29.60F WCI  -7
LEWISTOWN      FAIR      16   7  67 SW20      29.62F WCI  -1
N BAR RANCH    FAIR      23   3  42 W13       29.62F WCI  11
CHINOOK          N/A     10   3  72 NW3       29.61F
GEYSER         FAIR      17   8  67 W17       29.60F WCI   2
STANFORD       FAIR      20   9  60 W18       29.60F WCI   5
WINIFRED       FAIR      16   7  65 SW14      29.60F WCI   2
$$

MTZ017>020-022>027-061-062-251200-
NORTHEAST MONTANA

CITY           SKY/WX    TMP DP  RH WIND       PRES   REMARKS
GLASGOW        FAIR       6   2  83 SW3       29.63F
GLENDIVE       FAIR      13   7  77 S12       29.67F WCI  -1
JORDAN           N/A      6  -1  73 W10       29.66F WCI  -9
MALTA          CLEAR     -4  -8  84 SW8       29.64S WCI -19
SIDNEY         FAIR      16  10  77 W18       29.66S WCI   0
WOLF POINT     FAIR      12   6  77 SW8       29.67F WCI   0
PLENTYWOOD       N/A     12   9  85 W7        29.60R WCI   2
POPLAR           N/A     10   5  79 W8        29.68R WCI  -1
SCOBEY           N/A      8   0  70 CALM      29.61S
$$

MTZ028>42-056>058-251200-
SOUTHCENTRAL AND SOUTHEAST MONTANA

CITY           SKY/WX    TMP DP  RH WIND       PRES   REMARKS
BAKER          MOCLDY    14   9  80 W13       29.68S WCI   0
BILLINGS       FAIR      19   9  65 SW15      29.70F WCI   5
LIVINGSTON     MOCLDY    25   8  48 W25       29.70S WCI   9
MILES CITY     FAIR       8   3  80 SW5       29.71S
BIG TIMBER     CLOUDY    25  10  54 W31G38    29.72S WCI   8
FORSYTH          N/A     18  10  73 CALM      29.70F
HARLOWTON      FLURRIES  17   9  72 W24       29.66F WCI  -1
LAUREL           N/A     16   5  62 SW14      29.74F WCI   1
$$

REGIONAL REPORTS...DAKOTAS

CITY           SKY/WX    TMP DP  RH WIND       PRES   REMARKS
WILLISTON      FAIR      15  10  80 W13       29.62R WCI   1
MINOT          FAIR      19  13  77 W17       29.52R WCI   4
DICKINSON      CLOUDY    19  15  84 W21       29.59S WCI   3
BEACH          CLOUDY    16  12  86 W22       29.67S WCI  -2
CROSBY         CLOUDY    16  10  79 W17       29.57S WCI   0
TIOGA          FAIR      12  12 100 MISG      29.57R
BISMARCK       CLOUDY    23  19  85 W17       29.59S WCI   9
GRAND FORKS    CLOUDY    16  13  88 W12       29.48F WCI   3
FARGO          MOCLDY     8   6  92 W13       29.52R WCI  -8
BUFFALO SD       N/A     12   4  70 W15       29.60F WCI  -4
RAPID CITY     FAIR      13   2  61 CALM      29.72R
$$

REGIONAL REPORTS...WYOMING/IDAHO/WASHINGTON

CITY           SKY/WX    TMP DP  RH WIND       PRES   REMARKS
GILLETTE       FAIR      11   2  67 W12       29.72S WCI  -3
SHERIDAN       CLOUDY    18   6  59 CALM      29.73S
BUFFALO WY     MOCLDY    18   6  59 VRB3      29.70S
CODY           FAIR      24   6  46 W15G25    29.71F WCI  11
YELLOWSTONE LA   N/A     -8 -13  78 VRB3      29.75S
IDAHO FALLS    CLOUDY    19  16  88 SW18      29.97R WCI   4
SALMON         CLOUDY    18  16  92 CALM      29.93F
BOISE          FAIR      16  11  80 S5        30.15R
SPOKANE        CLOUDY    27  25  92 S18       29.84F WCI  14
$$

REGIONAL REPORTS...ALBERTA

CITY           SKY/WX    TMP DP  RH WIND       PRES   REMARKS
CALGARY        PTCLDY    23   1  39 W6        29.40F WCI  16
CARDSTON         N/A     27   9  46 W18G35      N/A  WCI  13
EDMONTON       CLOUDY    21   5  49 SW8       29.33F WCI  12
FORT MCMURRAY  FLURRIES  14  10  85 E12       29.35F WCI   0
HIGH LEVEL     CLEAR     -2  -6  84 CALM      29.29F
LETHBRIDGE     FLURRIES  25  14  63 W29G38    29.48  WCI   8
LLOYDMINSTER   CLEAR     10   9  92 S13       29.39F WCI  -5
MEDICINE HAT   PTCLDY    12   5  73 S12       29.53F WCI  -2
MILK RIVER       N/A     18  10  73 W16         N/A  WCI   3
PEACE RIVER    FLURRIES  12   9  85 NW3       29.20F
PINCHER CREEK  FLURRIES  23  14  68 W26G41    29.49F WCI   6
WATERTON GATE    N/A     23  12  63 SW28G52     N/A  WCI   6
$$

REGIONAL REPORTS...SASKATCHEWAN

CITY           SKY/WX    TMP DP  RH WIND       PRES   REMARKS
CORONACH         N/A      3   0  85 W6          N/A  WCI  -8
CYPRESS HILLS    N/A      9   1  72 S3          N/A
ESTEVAN        CLOUDY    12   9  85 W16       29.55R WCI  -4
MOOSE JAW        N/A     19  14  79 W12         N/A  WCI   7
PRINCE ALBERT  FLURRIES  10   5  79 CALM      29.55F
REGINA         FLURRIES  19  16  86 W10       29.54S WCI   8
ROCKGLEN         N/A     12   7  79 W14         N/A  WCI  -3
SASKATOON      PTCLDY    12   9  85 S3        29.53F
VAL MARIE        N/A     -9 -15  77 SE2         N/A
$$




USA.gov is the U.S. government's official web portal to all federal, state and local government web resources and services.